Location: Juzet
(42.9779°N, 0.7597°E)
Time: 02:54:12
(UTC+00:00)

CSL-04 DEB - Pass Details

Date: 14 July 2020
Orbit: 545 x 629 km, 98.7° (Epoch: 04 August)

Event Time Altitude Azimuth Distance (km) Brightness Sun altitude
Exits shadow 03:24:04 - 174° (S) 2,760 7.5 -10.6°
Reaches altitude 10° 03:26:07 10° 178° (S) 1,915 6.7 -10.3°
Maximum altitude 03:30:12 59° 258° (WSW) 674 4.5 -9.7°
Drops below altitude 10° 03:34:14 10° 338° (NNW) 1,880 7.3 -9.2°
Sets 03:36:23 0° 343° (NNW) 2,770 8.2 -8.9°
